Regional Weather Roundup
Issued by NWS Mobile, AL

Home | Current Version | Previous Version | Text Only | Print | Product List | Glossary On
Versions: 1 2 3 4 5 6 7 8 9 10 11 12 13 14 15 16 17 18 19 20 21 22 23 24 25 26 27 28 29 30 31 32 33 34 35 36 37 38 39 40 41 42 43 44 45 46 47 48 49 50
306
ASUS44 KMOB 161812
RWRMOB
REGIONAL WEATHER ROUNDUP
NATIONAL WEATHER SERVICE MOBILE AL
1200 PM CST MON JAN 16 2017

NOTE: "FAIR" INDICATES FEW OR NO CLOUDS BELOW 12,000 FEET WITH NO
      SIGNIFICANT WEATHER AND/OR OBSTRUCTIONS TO VISIBILITY.

  * THESE STATIONS ARE PART OF THE UNIVERSITY OF SOUTH ALABAMA
    MESONET AND ARE NOT UNDER NWS OR FAA QUALITY CONTROL.

ALZ061>064-161900-
COASTAL ALABAMA

CITY           SKY/WX    TMP DP  RH WIND       PRES   REMARKS
MOBILE REG APT PTSUNNY   77  61  57 SE14      30.20F
6HR MIN TEMP:  62; 6HR MAX TEMP:  78;

BROOKLEY FIELD MOSUNNY   76  66  71 S12G18    30.21F
6HR MIN TEMP:  63; 6HR MAX TEMP:  76;

USA CAMPUS*      N/A     75  63  64 SE3       30.20F
DOG RIVER*       N/A     73  66  78 SE7       31.01F


CITY           SKY/WX    TMP DP  RH WIND       PRES   REMARKS
GULF SHORES    SUNNY     76  67  75 SE15G22   30.21F

$$

ALZ051>060-161900-
INTERIOR SOUTHWEST AND SOUTH CENTRAL ALABAMA

CITY           SKY/WX    TMP DP  RH WIND       PRES   REMARKS
GREENVILLE     CLOUDY    75  52  44 VRB7      30.22F
6HR MIN TEMP:  53; 6HR MAX TEMP:  76;

EVERGREEN      MOSUNNY   76  56  49 S10       30.22F
6HR MIN TEMP:  54; 6HR MAX TEMP:  77;

ATMORE*        NOT AVBL
ANDALUSIA/OPP  SUNNY     80  56  43 VRB6G17   30.22F
6HR MIN TEMP:  57; 6HR MAX TEMP:  80;

ANDALUSIA*       N/A     75  57  53 S6        30.22F
FLORALA APT    SUNNY     77  56  48 S12       30.24F
6HR MIN TEMP:  57; 6HR MAX TEMP:  77;

FLORALA*         N/A     77  57  50 E6        30.99F

$$

FLZ001>006-161900-
WESTERN FLORIDA PANHANDLE

CITY           SKY/WX    TMP DP  RH WIND       PRES   REMARKS
PENSACOLA      MOSUNNY   75  64  68 SE14      30.21F
6HR MIN TEMP:  63; 6HR MAX TEMP:  75;

NAS PENSACOLA  MOSUNNY   76  65  68 E14       30.21F
6HR MIN TEMP:  62; 6HR MAX TEMP:  76;

MILTON           N/A    N/A N/A N/A MISG      30.21F
WHTNG S FIELD  MOSUNNY   79  62  56 S10G23    30.21F
6HR MIN TEMP:  63; 6HR MAX TEMP:  80;



CITY           SKY/WX    TMP DP  RH WIND       PRES   REMARKS
JAY*             N/A     75  59  57 S13       30.22F
DUKE FIELD     MOSUNNY   74  63  69 S13       30.22F
CRESTVIEW      MOSUNNY   76  60  57 S8        30.24F
6HR MIN TEMP:  54; 6HR MAX TEMP:  77;

VALPARAISO     PTSUNNY   69  62  78 SE7       30.23F
6HR MIN TEMP:  61; 6HR MAX TEMP:  71;

DESTIN         CLOUDY    72  65  78 SE13      30.23F
6HR MIN TEMP:  63; 6HR MAX TEMP:  73;


$$

MSZ076-079-161900-
INTERIOR SOUTHEAST MISSISSIPPI

CITY           SKY/WX    TMP DP  RH WIND       PRES   REMARKS
LEAKESVILLE*   NOT AVBL
AGRICOLA*      NOT AVBL

$$

MARINE OBSERVATIONS

STATION/POSITION TIME  TEMP    WIND        PRES    WAVE
                       AIR SEA DIR/SP/G            HT/PER
                 (UTC) (F)     (DEG/KT/KT) (MB)    (FT/S)
PASCAGOULA       1748   71     140/ 10/ 15 1022.3F
PETIT BOIS ISLND 1748   68      80/  7/  9 1023.0F
GRAND BAY        1630   69     110/  8     1024.0S
KATRINA CUT      1730          120/  9     1023.0F
CEDAR POINT      1730   66      70/  4     1023.0F
E DAUPHIN ISLAND 1700   69     120/  9/ 10 1023.0F
MIDDLE BAY LIGHT 1730   67     130/ 12     1023.0F
USCG MOBILE BAY  1748   71 60  170/  7/ 12 1023.5F
STATE DOCKS      1748      57              1023.0F
MEAHER PARK      1730   69     180/  8     1022.7F
WEEKS BAY        1645   76                   N/A
FORT MORGAN      1748   70     110/ 12/ 15   N/A
12 S ORANGE BCH  1750   69 65  130/  8/  8 1022.6F   4/ 7
PENSACOLA BAY    1748      61  130/  2/  8 1023.2F
67 S FORT MORGAN 1730   72                 1022.4F

$$

SELECTED LOCATIONS ACROSS THE REGION

CITY           SKY/WX    TMP DP  RH WIND       PRES   REMARKS
NEW ORLEANS    PTSUNNY   76  64  66 S15G29    30.14F
GULFPORT       PTSUNNY   75  64  68 SE15      30.17F
PASCAGOULA AP  CLOUDY    76  60  57 S12       30.19F
PASCAGOULA*    NOT AVBL
HATTIESBURG    MOSUNNY   76  61  59 S15       30.17F
LAUREL         PTSUNNY   75  61  60 S14G25    30.18F
MERIDIAN       MOSUNNY   77  61  57 S18G26    30.16F
JACKSON        PTSUNNY   71  61  70 S18       30.13F
MONTGOMERY     CLOUDY    76  52  43 MISG      30.23F
TROY           CLOUDY    75  55  49 S10G18    30.24F
ASHFORD*         N/A     75  57  53 S6        30.22F
DOTHAN         MOSUNNY   76  58  53 S10       30.27F
PANAMA CITY    MOSUNNY   76  62  62 SE17      30.23F

$$





USA.gov is the U.S. government's official web portal to all federal, state and local government web resources and services.